Back to catalog

STARLINK-34687

AliveCommunicationsVLEO
NORAD 64909·PAYLOAD·🇺🇸 United States

Launched Jul 26, 2025 from Cape Canaveral Space Force Station

Loading…

Next Passes (next 24 hours)

TLE

FreshSource: CelesTrak SupGP

Epoch: Sep 14, 2026, 14:54 UTC

1 64909C 25157F   26257.62131944  .00054050  00000+0  15975-2 0  2579
2 64909  53.1581 185.3536 0001255  89.6658  95.5250 15.34352803    10

Track STARLINK-34687 in real time with AllMySat

Download on the App Store